TimePDT,TemperatureF,Dew PointF,Humidity,Sea Level PressureIn,VisibilityMPH,Wind Direction,Wind SpeedMPH,Gust SpeedMPH,PrecipitationIn,Events,Conditions,WindDirDegrees,DateUTC
12:53 AM,55.9,51.1,84,29.93,10.0,WNW,3.5,-,N/A,,Clear,290,2013-06-11 07:53:00
1:53 AM,55.9,51.1,84,29.94,10.0,WNW,8.1,-,N/A,,Clear,300,2013-06-11 08:53:00
2:53 AM,55.0,51.1,86,29.94,10.0,WNW,4.6,-,N/A,,Scattered Clouds,300,2013-06-11 09:53:00
3:02 AM,55.4,51.8,88,29.94,10.0,WNW,4.6,-,N/A,,Mostly Cloudy,300,2013-06-11 10:02:00
3:53 AM,55.9,52.0,87,29.93,10.0,West,4.6,-,N/A,,Overcast,270,2013-06-11 10:53:00
4:53 AM,57.0,52.0,83,29.93,10.0,WNW,5.8,-,N/A,,Overcast,290,2013-06-11 11:53:00
5:48 AM,57.2,51.8,82,29.94,10.0,Calm,Calm,-,N/A,,Overcast,0,2013-06-11 12:48:00
5:53 AM,57.0,52.0,83,29.93,10.0,West,3.5,-,N/A,,Overcast,270,2013-06-11 12:53:00
6:53 AM,57.9,52.0,81,29.95,10.0,Calm,Calm,-,N/A,,Overcast,0,2013-06-11 13:53:00
7:53 AM,59.0,53.1,81,29.96,10.0,Variable,4.6,-,N/A,,Overcast,0,2013-06-11 14:53:00
8:51 AM,62.6,53.6,72,29.96,10.0,Variable,4.6,-,N/A,,Overcast,0,2013-06-11 15:51:00
8:53 AM,62.1,53.1,72,29.96,10.0,West,4.6,-,N/A,,Overcast,260,2013-06-11 15:53:00
9:20 AM,62.6,53.6,72,29.97,10.0,Calm,Calm,-,N/A,,Scattered Clouds,0,2013-06-11 16:20:00
9:53 AM,66.0,53.1,63,29.96,10.0,WNW,8.1,-,N/A,,Partly Cloudy,290,2013-06-11 16:53:00
10:53 AM,69.1,53.1,57,29.96,10.0,West,5.8,-,N/A,,Clear,280,2013-06-11 17:53:00
11:53 AM,70.0,52.0,53,29.96,10.0,Calm,Calm,-,N/A,,Clear,0,2013-06-11 18:53:00
12:53 PM,75.0,53.1,46,29.95,10.0,Calm,Calm,-,N/A,,Clear,0,2013-06-11 19:53:00
1:53 PM,75.9,53.1,45,29.93,10.0,Variable,3.5,-,N/A,,Clear,0,2013-06-11 20:53:00
2:53 PM,80.1,53.1,39,29.91,10.0,Variable,3.5,-,N/A,,Clear,0,2013-06-11 21:53:00
3:53 PM,78.1,53.1,42,29.90,10.0,WNW,12.7,-,N/A,,Clear,300,2013-06-11 22:53:00
4:53 PM,77.0,53.1,43,29.89,10.0,WNW,12.7,-,N/A,,Clear,300,2013-06-11 23:53:00
5:53 PM,73.9,53.1,48,29.89,10.0,WNW,12.7,-,N/A,,Clear,300,2013-06-12 00:53:00
6:53 PM,69.1,52.0,54,29.89,10.0,West,11.5,-,N/A,,Clear,280,2013-06-12 01:53:00
7:53 PM,66.9,51.1,57,29.90,10.0,West,9.2,-,N/A,,Clear,280,2013-06-12 02:53:00
8:53 PM,64.0,51.1,63,29.90,10.0,West,3.5,-,N/A,,Clear,280,2013-06-12 03:53:00
9:53 PM,63.0,52.0,67,29.91,10.0,Calm,Calm,-,N/A,,Clear,0,2013-06-12 04:53:00
10:53 PM,61.0,52.0,72,29.91,10.0,NW,3.5,-,N/A,,Clear,320,2013-06-12 05:53:00
11:53 PM,59.0,51.1,75,29.91,10.0,West,3.5,-,N/A,,Clear,280,2013-06-12 06:53:00